TimeEDT,TemperatureF,Dew PointF,Humidity,Sea Level PressureIn,VisibilityMPH,Wind Direction,Wind SpeedMPH,Gust SpeedMPH,PrecipitationIn,Events,Conditions,WindDirDegrees,DateUTC
12:56 AM,78.1,73.9,87,30.05,10.0,SSW,3.5,-,N/A,,Scattered Clouds,210,2013-08-03 04:56:00
1:56 AM,77.0,73.0,88,30.04,10.0,SSW,3.5,-,N/A,,Mostly Cloudy,210,2013-08-03 05:56:00
2:56 AM,75.9,73.0,91,30.03,10.0,SSW,3.5,-,N/A,,Mostly Cloudy,200,2013-08-03 06:56:00
3:56 AM,77.0,73.9,90,30.03,10.0,Calm,Calm,-,N/A,,Mostly Cloudy,0,2013-08-03 07:56:00
4:56 AM,77.0,73.9,90,30.02,10.0,Calm,Calm,-,N/A,,Scattered Clouds,0,2013-08-03 08:56:00
5:56 AM,77.0,73.0,88,30.03,10.0,Calm,Calm,-,N/A,,Partly Cloudy,0,2013-08-03 09:56:00
6:56 AM,75.9,73.0,91,30.03,10.0,Calm,Calm,-,N/A,,Partly Cloudy,0,2013-08-03 10:56:00
7:56 AM,81.0,75.0,82,30.04,10.0,Calm,Calm,-,N/A,,Scattered Clouds,0,2013-08-03 11:56:00
8:56 AM,84.0,75.0,74,30.04,10.0,SSW,3.5,-,N/A,,Scattered Clouds,200,2013-08-03 12:56:00
9:56 AM,86.0,75.0,70,30.04,10.0,SW,6.9,-,N/A,,Scattered Clouds,220,2013-08-03 13:56:00
10:56 AM,88.0,73.9,63,30.03,10.0,Calm,Calm,-,N/A,,Scattered Clouds,0,2013-08-03 14:56:00
11:56 AM,89.1,73.0,59,30.02,10.0,Variable,3.5,-,N/A,,Mostly Cloudy,0,2013-08-03 15:56:00
12:56 PM,91.0,70.0,50,30.02,10.0,Calm,Calm,-,N/A,,Mostly Cloudy,0,2013-08-03 16:56:00
1:56 PM,88.0,73.9,63,30.01,10.0,South,10.4,-,N/A,,Mostly Cloudy,180,2013-08-03 17:56:00
2:56 PM,89.1,73.9,61,29.99,10.0,Variable,5.8,-,N/A,,Mostly Cloudy,0,2013-08-03 18:56:00
3:56 PM,89.1,75.0,63,29.97,10.0,SSW,6.9,-,N/A,,Overcast,210,2013-08-03 19:56:00
4:56 PM,89.1,75.9,65,29.95,10.0,SSW,9.2,-,N/A,,Mostly Cloudy,200,2013-08-03 20:56:00
5:56 PM,88.0,73.9,63,29.95,10.0,South,8.1,-,N/A,,Mostly Cloudy,170,2013-08-03 21:56:00
6:56 PM,86.0,75.9,72,29.95,10.0,South,8.1,-,N/A,,Overcast,190,2013-08-03 22:56:00
7:56 PM,84.0,75.9,76,29.96,10.0,SSW,9.2,-,N/A,,Overcast,200,2013-08-03 23:56:00
8:56 PM,82.0,75.9,82,29.97,10.0,SSW,6.9,-,N/A,,Mostly Cloudy,200,2013-08-04 00:56:00
9:56 PM,82.0,75.9,82,29.99,10.0,SSW,8.1,-,N/A,,Mostly Cloudy,210,2013-08-04 01:56:00
10:56 PM,82.0,75.9,82,30.00,10.0,WSW,8.1,-,N/A,,Mostly Cloudy,240,2013-08-04 02:56:00
11:56 PM,81.0,75.9,85,29.99,10.0,WSW,5.8,-,N/A,,Scattered Clouds,250,2013-08-04 03:56:00